Flag for Germany Weather past 2 weeks in Ahrensburg, Schleswig-Holstein, Germany

Now
46 °F

Fog.


Feels Like: 42 °F
Forecast: 43 / 70 °F
Wind: 8 mph from East

Location: Hamburg-Fuhlsbuettel


UV Index: 3 (Moderate)

Visibility: 2 mi


Pressure: 30.18 "Hg

Humidity: 93%

Dew point: 45 °F

Location of AhrensburgLocation

Historic Weather in Ahrensburg

°F

Ahrensburg temperature yesterday

Maximum temperature yesterday: 61 °F (at 1:20 PM)
Minimum temperature yesterday: 48 °F (at 3:50 AM)
Average temperature yesterday: 55 °F

Past Weeks' High & Low Weather Summary

 TemperatureHumidityPressure
High68 °F (Apr 20, 1:50 PM)100% (Apr 11, 12:50 AM)30.45 "Hg (Apr 11, 12:50 AM)
Low30 °F (Apr 16, 3:50 AM)29% (Apr 16, 5:20 PM)29.68 "Hg (Apr 14, 4:50 AM)
Average50 °F78%30.02 "Hg
* Reported Apr 9 7:20 AM — Apr 24 7:20 AM, Ahrensburg, Weather by CustomWeather, © 2014

Note: Actual official high and low records may vary slightly from our data, if they occured in-between our weather recording intervals... More about our weather records

Advertising

Historic Weather Conditions — Data for Previous 24 hours

 ConditionsComfort  
Time TempWeatherWind HumidityBarometerVisibility
7:20 AM
Apr 24
46 °FFog.7 mph93%30.18 "Hg2 mi
6:50 AM46 °FFog.7 mph93%30.18 "Hg2 mi
6:20 AM45 °FFog.7 mph100%30.18 "Hg2 mi
5:50 AM45 °FFog.8 mph100%30.18 "Hg3 mi
5:20 AM45 °FLow clouds.10 mph100%30.18 "Hg4 mi
4:50 AM46 °FLow clouds.7 mph93%30.18 "Hg4 mi
4:20 AM46 °FLow clouds.12 mph93%30.18 "Hg4 mi
3:50 AM46 °FLow clouds.8 mph93%30.18 "Hg4 mi
3:20 AM48 °FLow clouds.10 mph94%30.18 "Hg4 mi
2:50 AM50 °FLow clouds.8 mph88%30.18 "Hg4 mi
2:20 AM50 °FLow clouds.7 mph94%30.18 "Hg4 mi
1:50 AM50 °FLow clouds.8 mph94%30.18 "Hg4 mi
1:20 AM50 °FLow clouds.7 mph94%30.18 "Hg4 mi
12:20 AM52 °FLow clouds.6 mph94%30.18 "Hg4 mi
11:50 PM
Apr 23
52 °FLow clouds.7 mph94%30.18 "Hg4 mi
11:20 PM52 °FLow clouds.7 mph94%30.18 "Hg4 mi
10:50 PM52 °FLow clouds.7 mph94%30.18 "Hg4 mi
10:20 PM52 °FLow clouds.9 mph94%30.18 "Hg4 mi
9:50 PM52 °FFog.8 mph94%30.15 "Hg3 mi
9:20 PM52 °FFog.10 mph94%30.15 "Hg3 mi
8:50 PM52 °FPartly sunny.12 mph94%30.15 "Hg4 mi
8:20 PM54 °FPartly sunny.10 mph94%30.15 "HgN/A
7:50 PM55 °FBroken clouds.10 mph88%30.12 "HgN/A
7:20 PM59 °FBroken clouds.9 mph82%30.12 "HgN/A
6:50 PM59 °FBroken clouds.9 mph82%30.12 "HgN/A
6:20 PM61 °FPartly sunny.8 mph77%30.12 "HgN/A
5:50 PM61 °FPartly sunny.10 mph77%30.12 "HgN/A
5:20 PM61 °FBroken clouds.9 mph77%30.12 "HgN/A
4:50 PM61 °FBroken clouds.9 mph77%30.12 "HgN/A
4:20 PM61 °FBroken clouds.9 mph77%30.12 "HgN/A
3:50 PM61 °FPartly sunny.12 mph77%30.12 "HgN/A
3:20 PM61 °FBroken clouds.8 mph72%30.12 "HgN/A
2:50 PM61 °FBroken clouds.9 mph77%30.12 "HgN/A
2:20 PM59 °FBroken clouds.8 mph82%30.12 "HgN/A
1:50 PM61 °FPartly sunny.7 mph83%30.12 "HgN/A
1:20 PM61 °FPartly sunny.7 mph83%30.12 "Hg5 mi
12:50 PM59 °FPartly sunny.7 mph82%30.12 "Hg4 mi
12:20 PM59 °FBroken clouds.3 mph82%30.12 "Hg4 mi
11:50 AM57 °FBroken clouds.5 mph88%30.12 "Hg4 mi
11:20 AM57 °FBroken clouds.7 mph88%30.12 "Hg4 mi
10:50 AM55 °FLight rain. Fog.7 mph94%30.12 "Hg3 mi
10:20 AM54 °FLight rain. Fog.7 mph94%30.09 "Hg3 mi
9:50 AM54 °FLight rain. Fog.6 mph94%30.09 "Hg3 mi
9:20 AM52 °FFog.5 mph94%30.09 "Hg3 mi
8:50 AM52 °FFog.5 mph94%30.09 "Hg3 mi
8:20 AM52 °FFog.3 mph94%30.09 "Hg3 mi
Weather by CustomWeather, © 2014

See weather overview